EHI
15 22 28 21 11 8 9 6 4 4 4 5 6 6 6 5 4 4 3 3 3 3 3 2 1 0 0 0 0 0 0 0 0 0 0 0 0 0 0 0 0 0 0
17 23 27 22 12 8 9 8 6 6 6 6 6 6 6 6 5 4 3 3 3 3 3 2 1 0 0 0 0 0 0 0 0 0 0 0 0 0 0 0 0 0 0
22 24 26 23 15 11 11 10 8 7 7 7 7 7 7 6 6 5 4 4 3 3 3 2 1 1 0 0 0 0 0 0 0 0 0 0 0 0 0 0 0 0 0
24 26 27 25 19 14 13 11 9 8 7 7 8 8 7 6 6 6 5 4 4 4 3 1 0 0 0 0 0 0 0 0 0 0 0 0 0 0 0 0 0 0 0
22 25 27 26 20 15 13 11 9 8 6 6 7 8 7 6 5 5 5 5 5 5 4 1 0 0 0 0 0 0 0 0 0 0 0 0 0 0 0 0 0 0 0
19 22 26 26 21 16 13 11 9 7 6 6 7 8 8 7 6 5 5 6 6 5 3 1 0 0 0 0 0 0 0 0 0 0 0 0 0 0 0 0 0 0 0
17 21 25 26 22 17 13 10 9 8 7 8 8 8 8 8 8 6 5 6 6 4 2 1 0 0 0 0 0 0 0 0 0 0 0 0 0 0 0 0 0 0 0
16 21 24 23 20 15 12 10 9 9 9 9 8 7 8 9 9 6 4 4 4 3 1 0 0 0 0 0 0 0 0 0 0 0 0 0 0 0 0 0 0 0 0
15 20 22 18 14 11 9 9 9 10 10 8 6 7 8 9 9 6 4 2 3 2 1 0 0 0 0 0 0 0 0 0 0 0 0 0 0 0 0 0 0 0 0
14 18 20 16 12 9 7 7 8 9 8 6 4 5 6 7 7 5 3 2 3 2 1 0 0 0 0 0 0 0 0 0 0 0 0 0 0 0 0 0 0 0 0
15 18 19 16 12 8 6 6 7 7 7 5 3 2 2 3 3 3 1 1 2 2 1 0 0 0 0 0 0 0 0 0 0 0 0 0 0 0 0 0 0 0 0
15 18 19 17 12 8 6 7 7 7 6 4 3 2 1 1 1 1 1 0 1 1 0 0 0 0 0 0 0 0 0 0 0 0 0 0 0 0 0 0 0 0 0
13 15 17 17 12 8 7 7 8 8 6 5 4 4 4 3 2 2 1 1 0 0 0 0 0 0 0 0 0 0 0 0 0 0 0 0 0 0 0 0 0 0 0
10 12 15 15 12 9 8 9 9 9 7 6 6 5 5 4 3 2 2 1 0 0 0 0 0 0 0 0 0 0 0 0 0 0 0 0 0 0 0 0 0 0 0
7 9 11 12 11 10 9 9 9 8 7 6 6 6 4 3 3 1 1 0 0 0 0 0 0 0 0 0 0 0 0 0 0 0 0 0 0 0 0 0 0 0 0
6 7 8 8 10 10 10 10 9 8 7 6 6 5 4 3 2 1 0 0 0 0 0 0 0 0 0 0 0 0 0 0 0 0 0 0 0 0 0 0 0 0 0
4 5 5 6 8 9 9 10 9 8 6 6 6 5 4 3 1 0 0 0 0 0 0 0 0 0 0 0 0 0 0 0 0 0 0 0 0 0 0 0 0 0 0
3 3 4 5 7 8 9 10 9 7 6 6 6 5 4 2 1 0 0 0 0 0 0 0 0 0 0 0 0 0 0 0 0 0 0 0 0 0 0 0 0 0 0
2 2 3 5 6 6 7 9 8 6 5 6 6 5 4 2 1 0 0 0 0 0 0 0 0 0 0 0 0 0 0 0 0 0 0 0 0 0 0 0 0 0 0
2 1 2 4 5 4 6 8 7 5 4 4 3 3 3 2 1 0 0 0 0 0 0 0 0 0 0 0 0 0 0 0 0 0 0 0 0 0 0 0 0 0 0
1 1 2 4 3 2 4 7 6 4 3 2 1 1 1 1 0 0 0 0 0 0 0 0 0 0 0 0 0 0 0 0 0 0 0 0 0 0 0 0 0 0 0
0 0 1 3 2 2 3 4 4 2 1 1 0 0 0 0 0 0 0 0 0 0 0 0 0 0 0 0 0 0 0 0 0 0 0 0 0 0 0 0 0 0 0
0 0 0 1 2 2 2 3 2 1 0 0 0 0 0 0 0 0 0 0 0 0 0 0 0 0 0 0 0 0 0 0 0 0 0 0 0 0 0 0 0 0 0
0 0 0 1 2 2 1 1 0 0 0 0 0 0 0 0 0 0 0 0 0 0 0 0 0 0 0 0 0 0 0 0 0 0 0 0 0 0 0 0 0 0 0
0 0 0 0 1 1 0 0 0 0 0 0 0 0 0 0 0 0 0 0 0 0 0 0 0 0 0 0 0 0 0 0 0 0 0 0 0 0 0 0 0 0 0
0 0 0 0 0 0 0 0 0 0 0 0 0 0 0 0 0 0 0 0 0 0 0 0 0 0 0 0 0 0 0 0 0 0 0 0 0 0 0 0 0 0 0
Wind_Speed
7 9 10 9 10 10 10 10 11 10 10 11 11 11 11 11 11 12 12 11 11 12 12 12 12 12 13 13 13 13 13 13 13 12 12 12 12 12 12 11 9 9 12
8 10 11 10 10 10 10 10 10 10 10 11 11 11 11 11 11 11 11 11 11 12 12 12 12 13 13 13 13 13 12 12 12 11 10 11 11 11 11 11 10 8 10
9 11 11 9 10 10 10 10 10 10 10 10 11 11 11 11 11 11 11 11 11 11 11 12 12 12 12 12 12 12 12 11 10 8 6 7 9 11 10 10 10 10 10
9 10 11 10 10 10 10 10 10 10 10 10 10 10 10 11 11 11 11 11 11 11 11 12 12 12 12 11 11 11 11 10 8 4 5 7 7 9 9 9 9 9 9
9 10 10 10 10 10 11 10 10 10 9 10 10 10 10 10 11 11 11 11 11 11 11 11 11 11 11 11 11 10 10 9 6 4 6 6 6 9 9 8 9 9 9
10 10 11 9 11 10 10 10 10 9 9 9 9 9 9 10 10 10 11 11 11 11 11 11 11 10 10 10 10 10 9 7 4 5 5 5 6 8 8 8 8 8 8
9 9 11 10 11 10 10 10 9 9 9 9 8 8 9 9 9 10 11 11 11 11 11 10 10 9 10 10 9 9 8 5 4 5 5 5 6 7 7 7 7 7 7
7 8 9 9 9 10 9 9 9 8 8 8 8 7 8 8 9 10 10 10 11 11 11 11 10 10 9 9 8 8 6 3 4 4 4 5 6 6 6 6 6 7 7
5 6 7 8 8 8 8 8 8 8 8 7 7 7 7 8 9 10 9 9 10 10 10 10 9 9 9 9 8 7 6 3 3 3 4 4 5 5 5 5 6 6 6
5 5 6 7 7 7 7 7 7 7 7 7 7 6 6 7 7 8 8 8 9 9 9 9 9 9 8 8 7 7 4 0 3 3 2 4 4 4 4 5 5 5 6
4 4 5 6 6 6 6 6 7 7 6 6 6 6 5 5 6 6 6 7 8 8 8 8 8 8 7 7 6 4 1 1 2 2 2 4 3 3 4 4 4 5 5
4 4 4 5 5 5 5 5 5 5 5 5 5 6 4 3 4 5 6 7 7 7 7 7 7 7 4 4 4 2 1 2 2 2 3 3 3 3 3 3 3 4 4
4 4 4 5 5 5 4 4 3 3 3 4 5 5 4 3 3 4 4 5 5 5 5 6 5 3 2 2 2 1 1 1 1 1 3 3 2 2 2 2 2 3 3
4 4 3 5 5 5 4 4 4 3 3 3 4 5 3 2 3 4 3 3 3 3 3 3 2 3 3 3 2 2 1 1 0 0 2 3 2 2 2 1 2 2 2
3 4 3 4 5 5 5 4 4 4 4 4 3 4 4 3 3 3 3 3 3 3 3 3 3 3 3 2 2 2 2 1 1 1 1 2 2 2 2 2 2 2 2
3 3 3 3 4 5 4 4 4 4 4 4 3 4 5 3 3 3 3 3 3 3 3 3 3 3 2 2 2 2 2 2 2 2 1 2 1 2 3 3 3 3 3
3 3 3 3 3 4 4 5 4 4 4 4 4 4 5 4 4 3 3 3 3 3 3 3 3 2 2 2 3 3 2 2 2 2 2 2 1 0 2 3 3 3 4
3 3 2 2 2 3 3 3 3 4 4 4 4 4 5 5 4 3 2 3 3 3 3 3 3 3 3 3 3 2 2 2 3 3 2 2 2 2 1 2 3 4 4
3 3 2 2 2 2 3 3 3 3 4 3 3 3 4 4 5 4 3 3 3 3 3 3 3 3 3 3 2 3 3 3 3 3 3 3 2 2 2 1 3 4 5
3 2 2 2 2 2 2 2 2 2 2 2 3 3 4 4 4 4 3 3 3 3 3 3 3 3 2 2 2 2 3 3 3 3 4 3 3 4 4 3 3 2 4
3 2 3 2 2 2 2 2 2 2 2 2 2 2 3 4 4 4 3 3 4 3 3 4 3 3 2 2 2 2 3 4 5 4 4 4 4 4 5 5 4 3 3
4 3 4 4 4 3 3 2 2 2 1 1 2 2 2 3 4 3 4 3 4 3 4 4 3 2 1 2 2 2 3 4 4 4 4 4 5 4 5 5 5 5 4
4 4 4 5 4 4 3 1 1 1 1 1 2 2 2 3 3 3 3 3 4 4 3 3 3 3 2 2 2 2 3 3 2 3 5 4 4 4 5 4 5 5 5
4 3 4 4 3 3 3 3 3 3 2 3 2 2 2 3 3 3 3 3 3 3 4 3 3 3 3 3 2 2 3 2 3 3 3 4 5 5 5 4 5 5 5
4 3 4 4 3 3 3 4 4 3 2 2 2 2 2 2 2 2 3 3 3 3 4 3 3 3 3 3 3 2 2 2 3 4 4 3 3 4 4 4 4 4 4
3 3 3 4 4 4 4 4 5 4 3 3 3 3 3 2 2 3 3 3 3 3 3 3 3 3 3 3 3 3 2 2 2 3 5 4 4 3 4 4 4 3 3
Wind_Direction
160 157 149 147 142 138 134 134 129 126 122 121 119 119 118 119 118 115 113 111 109 107 105 102 99 96 93 90 90 88 86 84 82 81 79 77 74 73 72 67 68 72 66
159 157 146 145 144 141 136 132 131 128 124 123 122 121 121 120 118 116 114 111 109 107 105 102 100 98 94 91 88 89 87 84 82 81 83 84 75 71 72 67 59 64 65
155 154 151 145 145 142 138 133 131 131 128 126 125 123 125 124 120 118 116 113 110 107 104 102 101 98 95 92 90 87 86 86 83 82 87 85 80 72 71 71 68 66 65
156 156 156 145 146 142 136 134 132 130 132 129 127 125 127 126 123 121 119 115 112 109 106 103 100 98 97 95 92 90 86 82 84 82 82 76 77 73 71 72 69 65 63
156 156 148 148 147 144 139 136 134 132 134 134 130 128 128 127 124 121 119 117 114 111 107 103 101 100 99 96 94 92 88 84 82 83 80 76 74 70 70 70 68 65 62
157 156 148 153 148 144 139 136 134 133 131 132 133 132 129 127 125 123 119 116 114 112 108 104 102 100 100 98 95 93 90 89 93 80 81 75 74 74 72 70 68 64 60
157 155 152 153 149 144 141 140 140 136 136 131 131 133 130 129 127 124 120 117 116 113 111 108 104 101 102 101 97 94 89 75 76 77 78 78 72 74 73 69 66 62 58
154 152 151 148 146 143 141 141 140 139 133 132 124 129 131 131 132 127 125 122 121 119 115 112 108 103 99 98 97 95 88 67 89 82 78 81 72 75 74 68 63 58 54
146 146 148 152 149 142 139 139 138 134 131 126 124 117 125 127 135 132 129 127 126 123 120 117 113 107 102 98 95 90 80 31 78 79 72 74 72 77 73 64 59 54 50
143 146 146 149 152 155 151 135 132 131 128 125 120 107 113 125 128 129 133 129 128 128 126 121 118 112 106 101 97 91 77 342 79 84 71 71 71 77 74 66 57 48 43
147 150 152 151 152 154 154 143 141 134 129 132 129 117 125 150 143 136 125 125 129 129 129 127 123 117 113 108 100 96 119 75 77 65 65 57 63 76 72 63 53 42 36
162 161 160 158 159 156 153 155 160 159 160 167 159 155 160 155 142 133 117 118 123 125 127 125 125 131 137 129 122 157 127 82 66 70 65 52 57 69 68 59 50 37 27
173 166 171 166 168 162 158 160 161 165 173 176 169 162 163 150 148 147 142 137 140 145 144 139 151 152 148 131 144 155 114 85 78 74 62 37 39 41 55 50 39 29 18
188 181 180 176 174 171 168 168 168 169 177 178 174 168 166 159 164 163 160 158 159 161 162 166 164 154 155 156 165 167 161 171 144 101 67 29 9 5 2 2 359 4 2
209 199 191 186 180 176 175 176 177 180 181 180 178 175 173 174 171 178 167 167 172 169 173 178 173 169 175 176 182 193 191 189 191 184 127 55 353 337 325 307 313 329 329
234 221 203 189 189 184 184 184 182 181 179 180 178 185 178 178 175 183 174 174 174 180 180 188 183 184 191 193 200 205 214 215 219 215 207 154 76 339 325 305 300 305 305
244 238 218 202 198 193 191 192 188 180 181 185 179 185 186 181 178 183 187 178 178 180 181 183 178 193 200 199 207 215 222 228 227 230 235 244 211 155 329 308 299 299 301
252 241 232 201 197 201 198 202 196 189 187 190 183 183 191 187 182 178 192 184 179 183 184 184 190 195 200 209 216 218 223 225 233 237 236 242 249 253 286 333 312 303 302
241 233 228 206 196 200 201 204 200 193 194 194 186 185 190 192 189 183 189 187 179 187 191 192 195 206 210 216 223 228 230 231 234 236 238 242 245 254 259 298 302 310 310
240 232 226 212 201 194 190 189 183 186 196 193 193 193 189 189 193 192 187 188 179 184 195 200 192 203 214 217 226 235 239 237 237 240 243 243 243 245 254 264 261 258 291
237 230 230 219 206 185 192 191 189 201 201 195 200 200 191 188 189 197 191 188 186 190 202 204 193 193 204 198 217 234 236 236 237 240 242 247 247 247 249 255 263 266 258
234 230 228 224 213 198 208 213 211 208 216 201 197 201 201 202 194 193 197 193 192 190 198 204 202 201 206 211 235 243 243 224 224 232 239 249 257 250 247 251 260 263 270
247 243 237 228 222 211 205 192 164 168 195 203 208 210 210 213 205 196 199 199 196 191 199 208 211 216 214 214 237 249 253 255 257 215 228 239 251 257 252 251 257 262 264
254 252 246 228 221 215 199 187 183 199 211 235 235 224 217 216 213 206 199 197 205 199 197 206 214 222 219 220 218 249 274 303 274 263 222 232 250 256 259 256 252 253 259
253 248 243 220 212 214 205 195 198 211 219 219 215 212 212 218 216 209 209 203 204 207 200 202 205 215 225 229 223 227 244 258 269 273 271 261 253 248 260 263 254 250 253
252 240 234 218 214 215 210 205 207 210 209 207 212 212 209 209 213 210 216 216 213 216 206 203 203 208 223 229 232 228 234 240 246 258 268 279 279 267 264 263 263 260 259